Regional Weather Roundup
Issued by NWS Jackson, KY

Home | Current Version | Previous Version | Graphics & Text | Print | Product List | Glossary On
Versions: 1 2 3 4 5 6 7 8 9 10 11 12 13 14 15 16 17 18 19 20 21 22 23 24 25 26 27 28 29 30 31 32 33 34 35 36 37 38 39 40 41 42 43 44 45 46 47 48 49 50
000
ASUS43 KJKL 060110
RWRJKL

EAST KENTUCKY HOURLY WEATHER ROUNDUP
NATIONAL WEATHER SERVICE JACKSON KY
900 PM EDT TUE MAY 05 2015

NOTE: "FAIR" INDICATES FEW OR NO CLOUDS BELOW 12,000 FEET WITH
NO SIGNIFICANT WEATHER AND/OR OBSTRUCTIONS TO VISIBILITY.

* THESE REPORTS ARE NOT UNDER NWS QUALITY CONTROL AND MAY NOT
  REPORT WEATHER SUCH AS PRECIPITATION AND FOG.

KYZ079-080-083-085-087-088-110-112-115-119-120-060200
...EASTERN KENTUCKY...

CITY           SKY/WX    TMP DP  RH WIND       PRES   REMARKS
JACKSON        PTCLDY    73  50  44 CALM      30.22S
LONDON         CLEAR     74  50  42 CALM      30.21R
SOMERSET*      CLEAR     72  52  49 CALM      30.21S
MONTICELLO*    CLEAR     68  56  65 CALM      30.23R
MIDDLESBORO*   CLEAR     69  56  64 CALM      30.22R
HARLAN APT*    PTCLDY    68  52  56 E8        30.24R
HAZARD APT*    CLEAR     73  55  53 CALM      30.22R
PIKEVILLE APT* CLEAR     75  52  43 CALM      30.23R
BIG SANDY*     CLEAR     73  54  49 CALM      30.22R
MOREHEAD APT*  CLEAR     75  52  43 CALM      30.23R
$$

KYZ035-036-041-042-044-050-067-078-099-060200
...CENTRAL KENTUCKY...

CITY           SKY/WX    TMP DP  RH WIND       PRES   REMARKS
MT STERLING*   CLEAR     72  55  56 CALM      30.23R
FLEMING/MASON* CLEAR     73  55  53 SW3       30.22R
DANVILLE*      CLEAR     68  54  60 CALM      30.22R
RICHMOND*      CLEAR     73  54  49 CALM      30.21R
LEXINGTON      CLEAR     75  54  47 S3        30.21R
FRANKFORT      CLEAR     70  55  59 CALM      30.19R
$$

KYZ091>093-OHZ055-061-077-WVZ005-015-034-035-042-060200
...SOUTHERN OHIO/WEST VIRGINIA...

CITY           SKY/WX    TMP DP  RH WIND       PRES   REMARKS
COVINGTON      PTCLDY    73  53  49 S3        30.19R
COLUMBUS       PTCLDY    74  55  51 CALM      30.18R
DAYTON         PTCLDY    77  52  41 S3        30.19R
WILMINGTON     CLEAR     71  52  50 S3        30.19R
HUNTINGTON     CLEAR     73  54  51 CALM      30.19R
CHARLESTON     PTCLDY    73  56  54 CALM      30.20R
PINEVILLE*     CLOUDY    66  61  84 MISG      30.30S
BECKLEY        MOCLDY    67  50  54 SW5       30.28S
BLUEFIELD      PTCLDY    71  48  43 N3        30.30S
$$

VAZ002-007-008-TNZ017-027-036-066-071-060200
...SOUTHWEST VIRGINIA/EAST TENNESSEE...

CITY           SKY/WX    TMP DP  RH WIND       PRES   REMARKS
WISE*          LGT RAIN  70  46  43 CALM      30.30S
JONESVILLE*    PTCLDY    68  54  60 CALM      30.25R
ABINGDON*      CLOUDY    73  54  51 CALM      30.26S
BRISTOL        CLOUDY    75  52  44 SE7       30.24R
KNOXVILLE      LGT RAIN  69  60  73 SE10      30.21R
OAK RIDGE      MOCLDY    74  56  53 CALM      30.21R
CROSSVILLE     CLEAR     71  50  47 CALM      30.24R
NASHVILLE      PTCLDY    77  52  41 CALM      30.18R
$$

...KEY TO REMARKS...
VSB - VISIBILITY IN MILES
WCI - WIND CHILL INDEX
HX  - HEAT INDEX

$$



USA.gov is the U.S. government's official web portal to all federal, state and local government web resources and services.